| time (UTC) | temp F | wind direction | speed MPH | gust MPH | rain 1hr in | rain 24hr in | rain mn in | humidity % | barometer mb |
| 20260905064016 | 82 | 158 | 1.0 | 2.0 | 0.00 | 0.00 | 0.00 | 68 | 1013.0 |
| 20260905063036 | 82 | 0.0 | 0.0 | 0.00 | 0.00 | 0.00 | 67 | 1013.0 | |
| 20260905062016 | 83 | 158 | 1.0 | 1.0 | 0.00 | 0.00 | 0.00 | 67 | 1012.9 |
| 20260905061016 | 83 | 158 | 1.0 | 2.0 | 0.00 | 0.00 | 0.00 | 66 | 1013.0 |
| 20260905060016 | 83 | 158 | 1.0 | 3.0 | 0.00 | 0.00 | 0.00 | 66 | 1012.9 |
| 20260905055036 | 84 | 158 | 1.0 | 2.0 | 0.00 | 0.00 | 0.00 | 65 | 1012.9 |
| 20260905054016 | 84 | 158 | 2.0 | 4.0 | 0.00 | 0.00 | 0.00 | 65 | 1012.8 |
| 20260905053016 | 84 | 158 | 2.0 | 4.0 | 0.00 | 0.00 | 0.00 | 64 | 1012.8 |
| 20260905052036 | 84 | 135 | 2.0 | 4.0 | 0.00 | 0.00 | 0.00 | 64 | 1012.7 |
| 20260905051036 | 84 | 135 | 3.0 | 7.0 | 0.00 | 0.00 | 0.00 | 64 | 1012.6 |
| 20260905050016 | 84 | 135 | 2.0 | 4.0 | 0.00 | 0.00 | 0.00 | 63 | 1012.5 |
| 20260905045016 | 85 | 135 | 2.0 | 3.0 | 0.00 | 0.00 | 0.00 | 63 | 1012.4 |
| 20260905043016 | 85 | 135 | 2.0 | 4.0 | 0.00 | 0.00 | 0.00 | 62 | 1012.4 |
| 20260905042016 | 86 | 135 | 2.0 | 4.0 | 0.00 | 0.00 | 0.00 | 61 | 1012.5 |
| 20260905041017 | 86 | 135 | 3.0 | 5.0 | 0.00 | 0.00 | 0.00 | 61 | 1012.4 |
| 20260905040016 | 86 | 135 | 2.0 | 4.0 | 0.00 | 0.00 | 0.00 | 61 | 1012.5 |
| 20260905035036 | 86 | 135 | 3.0 | 5.0 | 0.00 | 0.00 | 0.00 | 61 | 1012.3 |
| 20260905034036 | 86 | 135 | 3.0 | 6.0 | 0.00 | 0.00 | 0.00 | 61 | 1012.3 |
| 20260905033016 | 87 | 135 | 3.0 | 5.0 | 0.00 | 0.00 | 0.00 | 60 | 1012.2 |
| 20260905032016 | 87 | 135 | 3.0 | 7.0 | 0.00 | 0.00 | 0.00 | 60 | 1012.2 |
| 20260905031016 | 88 | 135 | 3.0 | 7.0 | 0.00 | 0.00 | 0.00 | 59 | 1012.1 |
| 20260905030016 | 88 | 135 | 4.0 | 7.0 | 0.00 | 0.00 | 0.00 | 59 | 1012.1 |
| 20260905025016 | 89 | 135 | 5.0 | 8.0 | 0.00 | 0.00 | 0.00 | 58 | 1011.9 |
| 20260905024056 | 89 | 135 | 5.0 | 8.0 | 0.00 | 0.00 | 0.00 | 58 | 1011.9 |
| 20260905023016 | 89 | 135 | 5.0 | 10.0 | 0.00 | 0.00 | 0.00 | 58 | 1011.6 |
| 20260905022016 | 89 | 135 | 6.0 | 10.0 | 0.00 | 0.00 | 0.00 | 57 | 1011.5 |
| 20260905021016 | 89 | 135 | 5.0 | 8.0 | 0.00 | 0.00 | 0.00 | 57 | 1011.3 |
| 20260905020016 | 89 | 135 | 6.0 | 10.0 | 0.00 | 0.00 | 0.00 | 56 | 1011.0 |
| 20260905015016 | 89 | 113 | 6.0 | 9.0 | 0.00 | 0.00 | 0.00 | 55 | 1010.8 |
| 20260905014016 | 90 | 113 | 6.0 | 8.0 | 0.00 | 0.00 | 0.00 | 55 | 1010.7 |
| 20260905013016 | 90 | 113 | 4.0 | 9.0 | 0.00 | 0.00 | 0.00 | 54 | 1010.6 |
| 20260905012016 | 90 | 113 | 2.0 | 4.0 | 0.00 | 0.00 | 0.00 | 54 | 1010.6 |
| 20260905011016 | 91 | 113 | 3.0 | 4.0 | 0.00 | 0.00 | 0.00 | 53 | 1010.4 |
| 20260905010016 | 91 | 113 | 3.0 | 6.0 | 0.00 | 0.00 | 0.00 | 52 | 1010.4 |
| 20260905005015 | 92 | 113 | 3.0 | 4.0 | 0.00 | 0.00 | 0.00 | 51 | 1010.3 |
| 20260905004035 | 94 | 135 | 4.0 | 8.0 | 0.00 | 0.00 | 0.00 | 49 | 1010.4 |
| 20260905003016 | 94 | 135 | 6.0 | 10.0 | 0.00 | 0.00 | 0.00 | 49 | 1010.3 |
| 20260905002015 | 95 | 135 | 5.0 | 8.0 | 0.00 | 0.00 | 0.00 | 48 | 1010.3 |
| 20260905001015 | 95 | 158 | 7.0 | 13.0 | 0.00 | 0.00 | 0.00 | 47 | 1010.1 |
| 20260905000035 | 96 | 135 | 9.0 | 15.0 | 0.00 | 0.00 | 0.00 | 47 | 1010.1 |
| 20260904235015 | 96 | 158 | 5.0 | 10.0 | 0.00 | 0.00 | 0.00 | 47 | 1010.0 |
| 20260904234015 | 96 | 135 | 8.0 | 15.0 | 0.00 | 0.00 | 0.00 | 47 | 1010.1 |
| 20260904233015 | 96 | 135 | 7.0 | 12.0 | 0.00 | 0.00 | 0.00 | 46 | 1010.0 |
| 20260904232015 | 96 | 135 | 9.0 | 14.0 | 0.00 | 0.00 | 0.00 | 46 | 1010.0 |
| 20260904231035 | 97 | 135 | 10.0 | 15.0 | 0.00 | 0.00 | 0.00 | 46 | 1010.1 |
| 20260904230015 | 97 | 135 | 6.0 | 12.0 | 0.00 | 0.00 | 0.00 | 47 | 1010.1 |
| 20260904225057 | 97 | 135 | 7.0 | 12.0 | 0.00 | 0.00 | 0.00 | 47 | 1010.3 |
| 20260904224015 | 97 | 158 | 8.0 | 13.0 | 0.00 | 0.00 | 0.00 | 47 | 1010.2 |
| 20260904223037 | 98 | 158 | 6.0 | 12.0 | 0.00 | 0.00 | 0.00 | 46 | 1010.3 |
| 20260904222017 | 98 | 113 | 9.0 | 14.0 | 0.00 | 0.00 | 0.00 | 46 | 1010.3 |
| 20260904221017 | 98 | 135 | 10.0 | 15.0 | 0.00 | 0.00 | 0.00 | 45 | 1010.3 |
| 20260904220017 | 98 | 158 | 8.0 | 14.0 | 0.00 | 0.00 | 0.00 | 44 | 1010.4 |
| 20260904215017 | 98 | 135 | 5.0 | 11.0 | 0.00 | 0.00 | 0.00 | 45 | 1010.4 |
| 20260904214037 | 98 | 158 | 8.0 | 16.0 | 0.00 | 0.00 | 0.00 | 45 | 1010.5 |
| 20260904213017 | 98 | 135 | 10.0 | 17.0 | 0.00 | 0.00 | 0.00 | 45 | 1010.5 |
| 20260904212017 | 98 | 158 | 10.0 | 19.0 | 0.00 | 0.00 | 0.00 | 46 | 1010.7 |
| 20260904211017 | 98 | 135 | 9.0 | 16.0 | 0.00 | 0.00 | 0.00 | 45 | 1010.8 |
| 20260904210017 | 98 | 180 | 6.0 | 10.0 | 0.00 | 0.00 | 0.00 | 46 | 1011.0 |
| 20260904205017 | 98 | 135 | 8.0 | 14.0 | 0.00 | 0.00 | 0.00 | 45 | 1011.1 |
| 20260904204017 | 98 | 135 | 10.0 | 17.0 | 0.00 | 0.00 | 0.00 | 45 | 1011.2 |
| 20260904203017 | 98 | 180 | 6.0 | 12.0 | 0.00 | 0.00 | 0.00 | 46 | 1011.3 |
| 20260904202037 | 98 | 180 | 8.0 | 16.0 | 0.00 | 0.00 | 0.00 | 45 | 1011.6 |
| 20260904201017 | 98 | 135 | 9.0 | 16.0 | 0.00 | 0.00 | 0.00 | 46 | 1011.7 |
| 20260904200017 | 98 | 180 | 8.0 | 14.0 | 0.00 | 0.00 | 0.00 | 45 | 1011.9 |
| 20260904195016 | 98 | 180 | 6.0 | 11.0 | 0.00 | 0.00 | 0.00 | 43 | 1012.0 |
| 20260904194016 | 97 | 180 | 6.0 | 12.0 | 0.00 | 0.00 | 0.00 | 44 | 1012.0 |
| 20260904193036 | 97 | 180 | 7.0 | 13.0 | 0.00 | 0.00 | 0.00 | 41 | 1012.2 |
| 20260904192017 | 97 | 180 | 6.0 | 11.0 | 0.00 | 0.00 | 0.00 | 41 | 1012.3 |
| 20260904191016 | 96 | 180 | 8.0 | 18.0 | 0.00 | 0.00 | 0.00 | 43 | 1012.4 |
| 20260904190016 | 97 | 135 | 9.0 | 17.0 | 0.00 | 0.00 | 0.00 | 41 | 1012.5 |
| 20260904185036 | 96 | 135 | 9.0 | 17.0 | 0.00 | 0.00 | 0.00 | 43 | 1012.5 |
| 20260904184016 | 95 | 158 | 8.0 | 14.0 | 0.00 | 0.00 | 0.00 | 44 | 1012.6 |
| 20260904183016 | 94 | 158 | 9.0 | 17.0 | 0.00 | 0.00 | 0.00 | 47 | 1012.7 |
| 20260904182016 | 94 | 158 | 8.0 | 17.0 | 0.00 | 0.00 | 0.00 | 52 | 1012.8 |
| 20260904181016 | 94 | 203 | 5.0 | 10.0 | 0.00 | 0.00 | 0.00 | 53 | 1012.9 |
| 20260904180016 | 92 | 158 | 9.0 | 18.0 | 0.00 | 0.00 | 0.00 | 55 | 1013.0 |
| 20260904175036 | 92 | 180 | 9.0 | 17.0 | 0.00 | 0.00 | 0.00 | 57 | 1013.1 |
| 20260904174016 | 92 | 158 | 6.0 | 11.0 | 0.00 | 0.00 | 0.00 | 58 | 1013.2 |
| 20260904173016 | 92 | 158 | 7.0 | 13.0 | 0.00 | 0.00 | 0.00 | 59 | 1013.4 |
| 20260904172016 | 91 | 135 | 10.0 | 15.0 | 0.00 | 0.00 | 0.00 | 60 | 1013.4 |
| 20260904171016 | 92 | 180 | 7.0 | 13.0 | 0.00 | 0.00 | 0.00 | 57 | 1013.5 |
| 20260904170036 | 92 | 180 | 6.0 | 16.0 | 0.00 | 0.00 | 0.00 | 58 | 1013.7 |
| 20260904165016 | 90 | 180 | 7.0 | 14.0 | 0.00 | 0.00 | 0.00 | 59 | 1013.7 |
| 20260904164016 | 89 | 158 | 6.0 | 12.0 | 0.00 | 0.00 | 0.00 | 63 | 1013.6 |
| 20260904163016 | 89 | 180 | 6.0 | 9.0 | 0.00 | 0.00 | 0.00 | 64 | 1013.8 |
| 20260904162016 | 87 | 135 | 7.0 | 11.0 | 0.00 | 0.00 | 0.00 | 67 | 1013.8 |
| 20260904161036 | 86 | 180 | 6.0 | 12.0 | 0.00 | 0.00 | 0.00 | 68 | 1013.9 |
| 20260904160016 | 86 | 180 | 7.0 | 11.0 | 0.00 | 0.00 | 0.00 | 69 | 1014.0 |
| 20260904155016 | 87 | 158 | 6.0 | 12.0 | 0.00 | 0.00 | 0.00 | 69 | 1013.9 |
| 20260904154016 | 88 | 180 | 5.0 | 11.0 | 0.00 | 0.00 | 0.00 | 66 | 1013.9 |
| 20260904153016 | 86 | 180 | 7.0 | 12.0 | 0.00 | 0.00 | 0.00 | 68 | 1013.8 |
| 20260904152016 | 85 | 180 | 4.0 | 8.0 | 0.00 | 0.00 | 0.00 | 73 | 1013.7 |
| 20260904151016 | 83 | 180 | 4.0 | 9.0 | 0.00 | 0.00 | 0.00 | 77 | 1013.7 |
| 20260904150016 | 82 | 203 | 6.0 | 13.0 | 0.00 | 0.00 | 0.00 | 79 | 1013.7 |
| 20260904145016 | 82 | 203 | 4.0 | 9.0 | 0.00 | 0.00 | 0.00 | 80 | 1013.7 |
| 20260904144016 | 81 | 180 | 4.0 | 8.0 | 0.00 | 0.00 | 0.00 | 82 | 1013.7 |
| 20260904143015 | 81 | 158 | 4.0 | 8.0 | 0.00 | 0.00 | 0.00 | 83 | 1013.7 |
| 20260904142015 | 80 | 180 | 5.0 | 8.0 | 0.00 | 0.00 | 0.00 | 83 | 1013.8 |
| 20260904141015 | 80 | 135 | 6.0 | 10.0 | 0.00 | 0.00 | 0.00 | 84 | 1013.7 |
| 20260904140015 | 79 | 135 | 4.0 | 9.0 | 0.00 | 0.00 | 0.00 | 85 | 1013.7 |
| 20260904135015 | 79 | 135 | 4.0 | 10.0 | 0.00 | 0.00 | 0.00 | 86 | 1013.4 |
| 20260904134015 | 78 | 158 | 3.0 | 5.0 | 0.00 | 0.00 | 0.00 | 86 | 1013.2 |
| 20260904133015 | 78 | 158 | 3.0 | 6.0 | 0.00 | 0.00 | 0.00 | 86 | 1013.2 |
| 20260904132016 | 78 | 135 | 5.0 | 9.0 | 0.00 | 0.00 | 0.00 | 87 | 1013.0 |
| 20260904131017 | 78 | 158 | 4.0 | 8.0 | 0.00 | 0.00 | 0.00 | 87 | 1013.0 |
| 20260904130017 | 78 | 158 | 4.0 | 7.0 | 0.00 | 0.00 | 0.00 | 87 | 1013.0 |
| 20260904125017 | 77 | 158 | 3.0 | 8.0 | 0.00 | 0.00 | 0.00 | 87 | 1012.9 |
| 20260904124017 | 77 | 135 | 3.0 | 6.0 | 0.00 | 0.00 | 0.00 | 87 | 1012.9 |
| 20260904123517 | 77 | 135 | 2.0 | 4.0 | 0.00 | 0.00 | 0.00 | 87 | 1012.8 |
| 20260904122517 | 77 | 158 | 2.0 | 5.0 | 0.00 | 0.00 | 0.00 | 87 | 1012.5 |
| 20260904121517 | 77 | 135 | 3.0 | 5.0 | 0.00 | 0.00 | 0.00 | 87 | 1012.4 |
| 20260904120517 | 77 | 135 | 4.0 | 7.0 | 0.00 | 0.00 | 0.00 | 86 | 1012.2 |
| 20260904115517 | 77 | 158 | 3.0 | 5.0 | 0.00 | 0.00 | 0.00 | 86 | 1012.3 |
| 20260904114517 | 78 | 135 | 3.0 | 6.0 | 0.00 | 0.00 | 0.00 | 86 | 1012.1 |
| 20260904113517 | 78 | 135 | 4.0 | 7.0 | 0.00 | 0.00 | 0.00 | 85 | 1012.3 |
| 20260904112557 | 78 | 135 | 3.0 | 7.0 | 0.00 | 0.00 | 0.00 | 85 | 1012.3 |
| 20260904111537 | 78 | 135 | 3.0 | 5.0 | 0.00 | 0.00 | 0.00 | 85 | 1012.4 |
| 20260904110517 | 78 | 135 | 3.0 | 6.0 | 0.00 | 0.00 | 0.00 | 85 | 1012.6 |
| 20260904105517 | 78 | 135 | 4.0 | 7.0 | 0.00 | 0.00 | 0.00 | 84 | 1012.5 |
| 20260904104517 | 78 | 158 | 2.0 | 3.0 | 0.00 | 0.00 | 0.00 | 84 | 1012.4 |
| 20260904103517 | 78 | 158 | 3.0 | 7.0 | 0.00 | 0.00 | 0.00 | 84 | 1012.4 |
| 20260904102516 | 78 | 158 | 3.0 | 5.0 | 0.00 | 0.00 | 0.00 | 84 | 1012.4 |
| 20260904101517 | 78 | 180 | 3.0 | 6.0 | 0.00 | 0.00 | 0.00 | 84 | 1012.3 |
| 20260904100517 | 78 | 135 | 4.0 | 7.0 | 0.00 | 0.00 | 0.00 | 84 | 1012.4 |
| 20260904095537 | 78 | 135 | 3.0 | 5.0 | 0.00 | 0.00 | 0.00 | 83 | 1012.3 |
| 20260904094516 | 78 | 158 | 2.0 | 4.0 | 0.00 | 0.00 | 0.00 | 83 | 1012.2 |
| 20260904093537 | 78 | 158 | 3.0 | 6.0 | 0.00 | 0.00 | 0.00 | 83 | 1012.3 |
| 20260904092517 | 78 | 135 | 3.0 | 5.0 | 0.00 | 0.00 | 0.00 | 83 | 1012.3 |
| 20260904091516 | 78 | 158 | 2.0 | 5.0 | 0.00 | 0.00 | 0.00 | 82 | 1012.3 |
| 20260904090516 | 78 | 135 | 4.0 | 8.0 | 0.00 | 0.00 | 0.00 | 82 | 1012.2 |
| 20260904085516 | 79 | 135 | 4.0 | 7.0 | 0.00 | 0.00 | 0.00 | 82 | 1012.2 |
| 20260904084516 | 79 | 158 | 4.0 | 8.0 | 0.00 | 0.00 | 0.00 | 81 | 1012.2 |
| 20260904083536 | 79 | 158 | 3.0 | 7.0 | 0.00 | 0.00 | 0.00 | 81 | 1012.2 |
| 20260904082516 | 79 | 180 | 4.0 | 7.0 | 0.00 | 0.00 | 0.00 | 80 | 1012.1 |
| 20260904081516 | 79 | 180 | 4.0 | 6.0 | 0.00 | 0.00 | 0.00 | 80 | 1012.1 |
| 20260904080516 | 79 | 158 | 4.0 | 7.0 | 0.00 | 0.00 | 0.00 | 80 | 1012.0 |
| 20260904075516 | 79 | 158 | 4.0 | 6.0 | 0.00 | 0.00 | 0.00 | 79 | 1012.1 |
| 20260904074536 | 79 | 158 | 4.0 | 7.0 | 0.00 | 0.00 | 0.00 | 79 | 1012.1 |
| 20260904073516 | 79 | 158 | 4.0 | 7.0 | 0.00 | 0.00 | 0.00 | 78 | 1012.3 |
| 20260904072516 | 79 | 158 | 4.0 | 7.0 | 0.00 | 0.00 | 0.00 | 78 | 1012.3 |
| 20260904071516 | 80 | 158 | 4.0 | 10.0 | 0.00 | 0.00 | 0.00 | 77 | 1012.5 |
| 20260904070516 | 80 | 158 | 5.0 | 10.0 | 0.00 | 0.00 | 0.00 | 76 | 1012.5 |
| 20260904065516 | 80 | 158 | 2.0 | 4.0 | 0.00 | 0.00 | 0.00 | 76 | 1012.6 |